HULIANWANG DIGUI 14B

Last updated on Wed Dec 10 2025 00:02:08 GMT+0000 (Coordinated Universal Time)

1 66916U 25285B 25343.64426358 -.00000129 00000+0 14196-4 0 9992 2 66916 50.0045 129.9057 0006953 266.8339 93.1771 14.05512338 478
UTC large
Height (km)
Speed (km/s)
/
Latitude / Longitude
Inclination (degrees)
Orbital Period (minutes)
Azimuth
Elevation
Range (km)
Doppler Factor

Next 0 passes for location: London (51.5072 / 0.1276)

Sorry there are no passes over London.